Find Starlink 11477

NORAD ID: 62471 Int'l Des: 2024-254 Owner: SPXS Country: US Constellation: starlink operational
LEOCIRCULAR

当前视图

正在加载3D地球...

About Starlink 11477

Starlink 11477 (NORAD 62471) is a starlink constellation satellite (v2 mini d2c) launched Dec 31, 2024 by SPXS of US. It operates in LEO, CIRCULAR orbit with a mass of 960.00 kg.

关于 Starlink 11477

正在加载描述...

即将过境

Passes for default location (London). Set your location on the main map for personalized predictions.

高度历史

Loading altitude history...

两行轨道根数

1 62471U 24254K 26166.79913305 .00149636 00000-0 11462-2 0 9990
2 62471 42.9979 351.3985 0001142 238.6733 121.4023 15.70892520 84820
Epoch: Jun 15, 2026 • Age: 26 hours

当前状态

高度 355.2 km
速度 7.70 km/s
星下点 3.21°N, 126.09°E
发射日期 Dec 31, 2024
运行时间 1.4 years
类型 internet

技术详情

分类 Payload
质量 960.00 kg
干质量 910.00 kg
总质量 960.00 kg
长度 0.30 m
直径 4.10 m
跨度 29.00 m
形状 Box + pan
制造商 SPXS
平台类型 Starlink V2MD
阶段状态 In Orbit
所有者/国家 SPXS/US

Most Searched